[[{"header":{"parameterUnit":"m.s-1","parameterCategory":1,"la1":30.2991,"la2":30.254,"lo1":-89.0895,"lo2":-89.0444,"dy":0.0017,"dx":0.0017,"nx":28,"ny":28,"refTime":"2024-08-06T21:00:00:Z","depth":0,"parameterNumber":2,"parameterNumberName":"U-component_of_WINDS"},"data":[0,0,0,0,0,0,0,0,0,0,0,0,0,0,0,0,0,0,0,0,0,0,0,0,0,0,0,0,0,0,0,0,0,0,0,0,0,0,0,0,0,0,0,0,0,0,0,0,0,0,0,0,0,0,0,0,0,0,5.0527,5.0528,0,5.0602,5.0603,5.0604,5.0583,5.0581,5.058,5.0578,5.0657,5.066,5.0664,0,0,0,0,0,0,0,0,0,0,0,0,0,5.0368,5.0371,5.0527,5.0528,5.0529,5.0602,5.0603,5.0604,5.0583,5.0581,5.0579,5.0577,5.0656,5.066,5.0664,0,0,0,0,0,0,0,0,0,0,0,0,0,5.044,5.0372,5.0527,5.0527,5.0528,5.0602,5.0603,5.0604,5.0583,5.0581,5.0579,5.0577,5.0654,5.0659,5.0665,5.0744,0,0,5.0681,5.0683,0,0,0,0,0,0,0,0,5.0436,5.0445,5.0526,5.0527,5.0528,5.0581,5.0576,5.0651,5.0584,5.0562,5.0578,5.0575,5.0633,5.064,5.066,5.0747,5.0751,5.0681,5.0685,5.0687,5.0688,0,0,0,0,0,0,0,5.0431,5.0442,5.0557,5.0527,5.0528,5.0525,5.0532,5.059,5.061,5.0564,5.0563,5.0572,5.0634,5.0655,5.0661,5.0752,5.0681,5.0686,5.0689,5.0691,5.0913,5.0916,0,0,0,0,0,0,5.0425,5.0438,5.0554,5.0559,5.0475,5.0529,5.0538,5.0566,5.0609,5.0614,5.0574,5.057,5.0647,5.0655,5.0664,5.0762,5.0687,5.0692,5.0695,5.0911,5.0914,5.0917,0,0,0,0,0,0,5.0421,5.0435,5.0551,5.0498,5.0513,5.0534,5.0566,5.0569,5.059,5.0617,5.062,5.0591,5.0645,5.0656,5.0725,5.0765,5.0694,5.0699,5.0907,5.0912,5.0915,5.0958,0,0,0,0,0,0,5.0417,5.0434,5.0463,5.0499,5.0516,5.061,5.0569,5.0572,5.0599,5.0595,5.0634,5.0638,5.0644,5.0717,5.073,5.0771,5.0703,5.0904,5.0909,5.0914,5.0953,5.0963,5.0971,0,0,0,0,0,5.0411,5.0471,5.0464,5.0479,5.0552,5.0612,5.0621,5.0627,5.0602,5.0632,5.065,5.0637,5.0758,5.0724,5.0739,5.0782,5.0901,5.0908,5.0914,5.0949,5.0961,5.0971,0,0,0,0,0,0,5.0438,5.0476,5.0469,5.0542,5.0574,5.0608,5.0646,5.0639,5.0679,5.0674,5.0679,5.0688,5.0759,5.0777,5.0739,5.0863,5.0826,5.0836,5.0848,5.086,5.0869,5.0864,5.0707,0,0,0,0,0,5.0453,5.0498,5.0528,5.059,5.0607,5.0624,5.065,5.0652,5.0685,5.0699,5.0721,5.0755,5.0802,5.0831,5.0875,5.0956,5.0966,5.0993,5.1002,5.1009,5.1018,5.1066,5.1079,5.0937,5.0937,5.0937,0,0,5.0483,5.051,5.0537,5.0596,5.0621,5.0669,5.0635,5.0686,5.0723,5.0706,5.0773,5.0792,5.083,5.0906,5.0941,5.0923,5.1059,5.1017,5.1023,5.1027,5.1073,5.1087,5.1099,5.0941,5.094,5.094,0,0,5.0564,5.0587,5.0643,5.067,5.0708,5.072,5.0734,5.077,5.0782,5.0849,5.0839,5.0883,5.0961,5.099,5.1015,5.1112,5.1102,5.1126,5.1174,5.1221,5.1232,5.1242,5.128,5.1293,5.1134,5.1134,5.1134,0,5.0597,5.0668,5.0673,5.0726,5.0754,5.0743,5.0801,5.0826,5.0878,5.0898,5.0878,5.0979,5.1003,5.1088,5.1112,5.1131,5.115,5.1122,5.123,5.124,5.125,5.1286,5.1299,5.1137,5.1137,5.1136,5.1136,0,5.0708,5.0758,5.0799,5.085,5.0882,5.0938,5.0953,5.0985,5.0985,5.1,5.1071,5.1101,5.1152,5.1172,5.1171,5.1258,5.1247,5.1228,5.1192,5.1266,5.13,5.1313,5.1141,5.114,5.1139,5.1138,0,0,5.0806,5.0862,5.0877,5.0902,5.0946,5.0985,5.1042,5.1093,5.1122,5.1158,5.1208,5.1276,5.1261,5.129,5.1293,5.1334,5.1413,5.1311,5.1312,5.1331,5.1514,5.1529,5.1544,5.1406,5.1409,5.1411,5.1512,0,5.0893,5.0992,5.1,5.109,5.1138,5.113,5.118,5.1213,5.1229,5.1274,5.1292,5.1342,5.1315,5.1333,5.1373,5.1394,5.145,5.1387,5.1455,5.1457,5.1447,5.1562,5.1577,5.167,5.1525,5.1527,5.1528,0,5.1006,5.1048,5.1143,5.1185,5.1205,5.1249,5.1299,5.134,5.138,5.1389,5.1423,5.1422,5.1483,5.1444,5.153,5.1487,5.1515,5.153,5.1534,5.1542,5.1498,5.1575,5.17,5.1715,5.1549,5.1547,5.1546,0,5.1072,5.1152,5.122,5.1242,5.129,5.1323,5.1344,5.1381,5.1413,5.1456,5.1477,5.1527,5.1555,5.1595,5.1608,5.1578,5.1695,5.1656,5.1706,5.1706,5.1732,5.173,5.1865,5.1747,5.1747,5.1746,5.1746,0,5.1169,5.1228,5.1251,5.1293,5.1361,5.137,5.1437,5.1458,5.1491,5.1539,5.1535,5.158,5.1594,5.1642,5.1653,5.1725,5.1736,5.1747,5.175,5.1749,5.1748,5.1769,5.1764,5.175,5.1749,5.1748,5.1748,0,5.1254,5.1271,5.1346,5.1387,5.1399,5.1447,5.1483,5.1525,5.1542,5.1602,5.1617,5.1643,5.1701,5.1718,5.1786,5.1794,5.1878,5.1874,5.1865,5.1866,5.1916,5.1913,5.2071,5.2094,5.1958,5.1959,5.196,0,5.1315,5.1361,5.1408,5.144,5.1464,5.1515,5.1547,5.156,5.1594,5.1645,5.1682,5.1738,5.1784,5.1876,5.1902,5.1956,5.1954,5.2006,5.1962,5.1961,5.1958,5.1956,5.1963,5.2015,5.2016,5.2017,5.2018,0,5.1423,5.1431,5.1478,5.153,5.1569,5.161,5.165,5.1677,5.1695,5.1734,5.1793,5.1829,5.19,5.1958,5.2013,5.2037,5.2032,5.2032,5.2047,5.2047,5.2042,5.2048,5.189,5.2028,5.2027,5.2026,5.2026,5.2025,5.15,5.1543,5.1584,5.1637,5.1669,5.1707,5.175,5.1773,5.1822,5.1881,5.1885,5.195,5.1992,5.2065,5.2093,5.2145,5.213,5.2151,5.2156,5.2162,5.2168,5.2032,5.2154,5.2154,5.2154,5.2154,5.2153,0,5.1611,5.1638,5.1688,5.1744,5.1788,5.1779,5.1824,5.1861,5.1918,5.1957,5.2003,5.2073,5.2129,5.2161,5.2218,5.2254,5.2254,5.2269,5.2267,5.2274,5.2176,5.2159,5.2269,5.2269,5.2269,5.2269,5.2269,5.2269,5.1674,5.1746,5.1759,5.1848,5.1874,5.1938,5.1965,5.2001,5.2033,5.2111,5.2158,5.2178,5.2216,5.2276,5.2329,5.2337,5.2359,5.2377,5.2384,5.2292,5.228,5.2269,5.2253,5.2381,5.2381,5.2478,5.2479,5.248]},{"header":{"parameterUnit":"m.s-1","parameterCategory":1,"la1":30.2991,"la2":30.254,"lo1":-89.0895,"lo2":-89.0444,"dy":0.0017,"dx":0.0017,"nx":28,"ny":28,"refTime":"2024-08-06T21:00:00:Z","depth":0,"parameterNumber":3,"parameterNumberName":"V-component_of_WINDS"},"data":[0,0,0,0,0,0,0,0,0,0,0,0,0,0,0,0,0,0,0,0,0,0,0,0,0,0,0,0,0,0,0,0,0,0,0,0,0,0,0,0,0,0,0,0,0,0,0,0,0,0,0,0,0,0,0,0,0,0,-0.5695,-0.5694,0,-0.5597,-0.5596,-0.5595,-0.5614,-0.5616,-0.5618,-0.5619,-0.5513,-0.5509,-0.5504,0,0,0,0,0,0,0,0,0,0,0,0,0,-0.5896,-0.5892,-0.5695,-0.5694,-0.5693,-0.5597,-0.5596,-0.5595,-0.5614,-0.5616,-0.5618,-0.562,-0.5515,-0.5509,-0.5504,0,0,0,0,0,0,0,0,0,0,0,0,0,-0.5804,-0.5891,-0.5696,-0.5691,-0.569,-0.5598,-0.5596,-0.5594,-0.5613,-0.5616,-0.5619,-0.5621,-0.5516,-0.551,-0.5503,-0.5408,0,0,-0.5483,-0.548,0,0,0,0,0,0,0,0,-0.5809,-0.5797,-0.5693,-0.5691,-0.569,-0.5621,-0.5628,-0.5531,-0.5613,-0.5642,-0.5619,-0.5622,-0.5546,-0.5537,-0.5513,-0.5403,-0.5398,-0.5482,-0.5478,-0.5475,-0.5473,0,0,0,0,0,0,0,-0.5816,-0.5801,-0.5656,-0.5692,-0.5689,-0.5693,-0.5683,-0.5609,-0.558,-0.564,-0.5641,-0.5629,-0.5546,-0.5519,-0.551,-0.5397,-0.5482,-0.5476,-0.5472,-0.5469,-0.5205,-0.5202,0,0,0,0,0,0,-0.5824,-0.5806,-0.566,-0.5653,-0.5757,-0.5687,-0.5676,-0.564,-0.5581,-0.5575,-0.5627,-0.5631,-0.5529,-0.5518,-0.5507,-0.5393,-0.5475,-0.5469,-0.5465,-0.5208,-0.5204,-0.5201,0,0,0,0,0,0,-0.5828,-0.5811,-0.5663,-0.573,-0.5712,-0.5681,-0.564,-0.5637,-0.561,-0.5572,-0.5566,-0.5606,-0.5531,-0.5516,-0.5433,-0.5389,-0.5466,-0.546,-0.5211,-0.5207,-0.5203,-0.5163,0,0,0,0,0,0,-0.5834,-0.5812,-0.5777,-0.5729,-0.5708,-0.5592,-0.5638,-0.5633,-0.5599,-0.5603,-0.555,-0.5544,-0.5532,-0.5443,-0.5426,-0.5381,-0.5454,-0.5215,-0.5209,-0.5204,-0.5168,-0.5158,-0.5149,0,0,0,0,0,-0.5841,-0.5768,-0.5775,-0.5757,-0.5663,-0.559,-0.5578,-0.5567,-0.5595,-0.5559,-0.5534,-0.5545,-0.5397,-0.5434,-0.5416,-0.5368,-0.5218,-0.5211,-0.5204,-0.5172,-0.516,-0.5149,0,0,0,0,0,0,-0.5808,-0.5761,-0.5769,-0.5678,-0.5638,-0.5593,-0.5547,-0.5554,-0.5504,-0.5509,-0.5497,-0.5485,-0.54,-0.5375,-0.5418,-0.5273,-0.5311,-0.53,-0.5293,-0.5281,-0.5271,-0.5279,-0.5449,0,0,0,0,0,-0.5791,-0.5737,-0.5698,-0.5622,-0.5602,-0.5578,-0.5545,-0.5541,-0.5499,-0.5481,-0.5451,-0.5407,-0.5351,-0.5314,-0.526,-0.5164,-0.5153,-0.5122,-0.5113,-0.5105,-0.5096,-0.5045,-0.5031,-0.5179,-0.5179,-0.5179,0,0,-0.5754,-0.5722,-0.5688,-0.5615,-0.5583,-0.5527,-0.5563,-0.5501,-0.5459,-0.5471,-0.5392,-0.5368,-0.5319,-0.5229,-0.5188,-0.5206,-0.5053,-0.5096,-0.5091,-0.5086,-0.5037,-0.5023,-0.501,-0.5174,-0.5175,-0.5176,0,0,-0.5658,-0.5628,-0.5562,-0.553,-0.5483,-0.5468,-0.5452,-0.5406,-0.5392,-0.5312,-0.532,-0.5269,-0.5172,-0.5138,-0.5107,-0.5,-0.5008,-0.4982,-0.4932,-0.4883,-0.4871,-0.4861,-0.4824,-0.481,-0.4973,-0.4973,-0.4973,0,-0.5617,-0.5534,-0.5527,-0.5465,-0.5433,-0.5443,-0.5376,-0.5345,-0.5281,-0.5259,-0.528,-0.516,-0.5127,-0.5031,-0.5005,-0.4979,-0.4961,-0.4988,-0.4874,-0.4863,-0.4853,-0.4818,-0.4804,-0.497,-0.497,-0.4971,-0.4971,0,-0.5488,-0.543,-0.5382,-0.5324,-0.5286,-0.5221,-0.5203,-0.5165,-0.5164,-0.5147,-0.5066,-0.5027,-0.4967,-0.4943,-0.494,-0.4846,-0.4859,-0.4877,-0.4915,-0.4837,-0.4803,-0.479,-0.4966,-0.4967,-0.4968,-0.4969,0,0,-0.5368,-0.5308,-0.529,-0.5265,-0.5214,-0.5169,-0.5104,-0.5047,-0.5016,-0.4971,-0.4918,-0.4836,-0.4853,-0.4819,-0.4812,-0.4769,-0.4688,-0.4792,-0.479,-0.4775,-0.4584,-0.4572,-0.4556,-0.4693,-0.469,-0.4688,-0.4588,0,-0.5269,-0.5159,-0.5151,-0.5051,-0.4998,-0.5007,-0.4951,-0.4914,-0.4895,-0.4847,-0.4825,-0.4769,-0.4794,-0.4774,-0.4731,-0.4707,-0.465,-0.4714,-0.4643,-0.4641,-0.4657,-0.4539,-0.4526,-0.4433,-0.4575,-0.4573,-0.4571,0,-0.5139,-0.5094,-0.4989,-0.4948,-0.4925,-0.4876,-0.4823,-0.4777,-0.4734,-0.4724,-0.4686,-0.4686,-0.462,-0.466,-0.4569,-0.4613,-0.4583,-0.4567,-0.4563,-0.4557,-0.4602,-0.4531,-0.4403,-0.439,-0.455,-0.4552,-0.4553,0,-0.5065,-0.4977,-0.4904,-0.4882,-0.4831,-0.4796,-0.4773,-0.4733,-0.47,-0.4653,-0.4631,-0.4577,-0.4547,-0.4504,-0.449,-0.452,-0.4399,-0.4437,-0.4389,-0.439,-0.4364,-0.4366,-0.4232,-0.4343,-0.4343,-0.4343,-0.4343,0,-0.4956,-0.4892,-0.4871,-0.4826,-0.4755,-0.4745,-0.4674,-0.4653,-0.4617,-0.4568,-0.4571,-0.4524,-0.4507,-0.4457,-0.4444,-0.4372,-0.4357,-0.4347,-0.4345,-0.4348,-0.435,-0.4329,-0.4336,-0.4339,-0.434,-0.4341,-0.4342,0,-0.4862,-0.4845,-0.4766,-0.4725,-0.4713,-0.4663,-0.4627,-0.4583,-0.4566,-0.4503,-0.4488,-0.446,-0.4402,-0.4383,-0.4311,-0.4303,-0.4219,-0.4221,-0.4234,-0.4234,-0.4188,-0.4193,-0.4036,-0.4016,-0.4139,-0.4138,-0.4137,0,-0.4794,-0.4746,-0.47,-0.4669,-0.4645,-0.4593,-0.456,-0.4548,-0.4513,-0.4461,-0.4424,-0.4366,-0.432,-0.4226,-0.4199,-0.4145,-0.4147,-0.4096,-0.4138,-0.4144,-0.4148,-0.4152,-0.4148,-0.4088,-0.4087,-0.4086,-0.4085,0,-0.4677,-0.4672,-0.4624,-0.4574,-0.4535,-0.4494,-0.4455,-0.4428,-0.4411,-0.4371,-0.4313,-0.4277,-0.4205,-0.4148,-0.4093,-0.4068,-0.4073,-0.4071,-0.4058,-0.4061,-0.4071,-0.4067,-0.4214,-0.4075,-0.4076,-0.4077,-0.4077,-0.4078,-0.4595,-0.4554,-0.4516,-0.4463,-0.4433,-0.4397,-0.4354,-0.4333,-0.4284,-0.4227,-0.4222,-0.4159,-0.4118,-0.4045,-0.4017,-0.3967,-0.3982,-0.3961,-0.3956,-0.3952,-0.395,-0.4078,-0.3957,-0.3957,-0.3957,-0.3957,-0.3958,0,-0.448,-0.4457,-0.4408,-0.4355,-0.4313,-0.4323,-0.4281,-0.4245,-0.4191,-0.4153,-0.4108,-0.4041,-0.3986,-0.3955,-0.39,-0.3866,-0.3868,-0.3852,-0.3856,-0.385,-0.3939,-0.3957,-0.3853,-0.3853,-0.3853,-0.3853,-0.3853,-0.3853,-0.4415,-0.4346,-0.4336,-0.4251,-0.4227,-0.4167,-0.4142,-0.4109,-0.4079,-0.4005,-0.396,-0.3941,-0.3906,-0.3849,-0.3799,-0.3791,-0.3771,-0.3755,-0.3749,-0.3833,-0.3844,-0.3854,-0.3871,-0.375,-0.375,-0.3665,-0.3664,-0.3663]}]]